GW0212 Weather Reports


time (UTC)temp
C
wind
direction
speed
KPH
gust
KPH
rain 1hr
cm
rain 24hr
cm
rain mn
cm
humidity
%
barometer
mb
20260505181028 22 349 1.6 12.9 0.00 0.00 0.00 43 1015.3
20260505180525 22 165 3.2 12.9 0.00 0.00 0.00 41 1015.4
20260505180042 22 277 3.2 12.9 0.00 0.00 0.00 48 1015.3
20260505175525 22 128 3.2 14.5 0.00 0.00 0.00 44 1015.3
20260505175025 22 6 4.8 14.5 0.00 0.00 0.00 43 1015.4
20260505174539 22 0 4.8 14.5 0.00 0.00 0.00 45 1015.5
20260505174025 22 314 1.6 11.3 0.00 0.00 0.00 44 1015.5
20260505173525 22 0 3.2 12.9 0.00 0.00 0.00 45 1015.8
20260505173034 22 154 3.2 12.9 0.00 0.00 0.00 41 1015.8
20260505172526 22 231 4.8 12.9 0.00 0.00 0.00 44 1015.9
20260505172026 22 352 3.2 11.3 0.00 0.00 0.00 44 1016.1
20260505171542 22 205 3.2 11.3 0.00 0.00 0.00 49 1016.1
20260505171025 22 77 3.2 9.7 0.00 0.00 0.00 44 1016.0
20260505170529 22 53 3.2 8.0 0.00 0.00 0.00 43 1016.1
20260505170039 22 233 1.6 6.4 0.00 0.00 0.00 44 1016.2
20260505165525 22 206 1.6 9.7 0.00 0.00 0.00 46 1016.1
20260505165026 22 120 3.2 11.3 0.00 0.00 0.00 47 1016.0
20260505164535 22 122 4.8 11.3 0.00 0.00 0.00 45 1016.1
20260505164025 22 0 3.2 11.3 0.00 0.00 0.00 44 1016.0
20260505163529 22 327 1.6 9.7 0.00 0.00 0.00 48 1016.0
20260505163043 22 81 1.6 9.7 0.00 0.00 0.00 46 1016.1
20260505162538 21 44 1.6 17.7 0.00 0.00 0.00 44 1016.0
20260505162026 21 289 1.6 17.7 0.00 0.00 0.00 49 1016.1
20260505161540 21 310 3.2 14.5 0.00 0.00 0.00 48 1016.0
20260505161025 21 343 3.2 14.5 0.00 0.00 0.00 48 1016.1
20260505160529 21 312 3.2 22.5 0.00 0.00 0.00 47 1016.0
20260505153045 20 39 0.0 4.8 0.00 0.00 0.00 50 1016.1
20260505152526 20 12 1.6 4.8 0.00 0.00 0.00 49 1016.2
20260505152025 20 62 1.6 6.4 0.00 0.00 0.00 48 1016.5
20260505151541 20 0 0.0 6.4 0.00 0.00 0.00 49 1016.5
20260505151025 20 325 3.2 6.4 0.00 0.00 0.00 49 1016.7
20260505150525 19 0 3.2 6.4 0.00 0.00 0.00 50 1016.7
20260505140525 14 0 0.0 3.2 0.00 0.00 0.00 79 1016.5
20260505125025 7 0 0.0 0.0 0.00 0.00 0.00 97 1016.5
20260505124540 7 0 0.0 1.6 0.00 0.00 0.00 97 1016.5
20260505124026 7 0 0.0 1.6 0.00 0.00 0.00 97 1016.4
20260505123526 7 0 0.0 1.6 0.00 0.00 0.00 97 1016.4
20260505123048 6 0 0.0 0.0 0.00 0.00 0.00 97 1016.5
20260505122525 6 0 0.0 1.6 0.00 0.00 0.00 97 1016.5
20260505122028 6 0 0.0 1.6 0.00 0.00 0.00 97 1016.5
20260505121537 5 0 0.0 0.0 0.00 0.00 0.00 97 1016.4
20260505121025 5 0 0.0 0.0 0.00 0.00 0.00 97 1016.4
20260505120524 5 0 0.0 0.0 0.00 0.00 0.00 97 1016.3
20260505120054 4 0 0.0 0.0 0.00 0.00 0.00 96 1016.3
20260505115524 4 0 0.0 0.0 0.00 0.00 0.00 96 1016.2
20260505115025 4 0 0.0 1.6 0.00 0.00 0.00 96 1016.2
20260505114540 3 0 0.0 1.6 0.00 0.00 0.00 96 1016.1
20260505114025 3 0 0.0 0.0 0.00 0.00 0.00 96 1015.9
20260505113525 3 0 0.0 0.0 0.00 0.00 0.00 96 1015.9
20260505113038 3 0 0.0 0.0 0.00 0.00 0.00 95 1015.9
20260505112525 3 0 0.0 0.0 0.00 0.00 0.00 95 1015.7
20260505112025 3 0 0.0 0.0 0.00 0.00 0.00 95 1015.6
20260505111536 3 0 0.0 0.0 0.00 0.00 0.00 95 1015.7
20260505111025 3 0 0.0 0.0 0.00 0.00 0.00 95 1015.7
20260505110525 3 0 0.0 1.6 0.00 0.00 0.00 95 1015.7
20260505102029 4 0 0.0 0.0 0.00 0.00 0.00 93 1015.4
20260505101536 4 0 0.0 0.0 0.00 0.00 0.00 93 1015.4
20260505101025 4 0 0.0 0.0 0.00 0.00 0.00 93 1015.4
20260505100525 4 0 0.0 0.0 0.00 0.00 0.00 93 1015.5
20260505100035 4 0 0.0 1.6 0.00 0.00 0.00 93 1015.6
20260505095525 4 0 0.0 3.2 0.00 0.00 0.00 93 1015.6
20260505095025 4 0 0.0 3.2 0.00 0.00 0.00 93 1015.6
20260505094535 4 0 0.0 1.6 0.00 0.00 0.00 93 1015.6
20260505094025 5 0 0.0 1.6 0.00 0.00 0.00 93 1015.5
20260505093525 5 0 0.0 1.6 0.00 0.00 0.00 92 1015.5
20260505093040 5 0 0.0 0.0 0.00 0.00 0.00 92 1015.6
20260505092526 5 0 0.0 1.6 0.00 0.00 0.00 92 1015.5
20260505092025 5 0 0.0 1.6 0.00 0.00 0.00 92 1015.5
20260505091536 5 0 0.0 1.6 0.00 0.00 0.00 92 1015.5
20260505091025 5 129 0.0 1.6 0.00 0.00 0.00 92 1015.5
20260505090525 5 0 0.0 0.0 0.00 0.00 0.00 92 1015.5
20260505090037 5 0 0.0 1.6 0.00 0.00 0.00 91 1015.5
20260505085526 5 0 0.0 1.6 0.00 0.00 0.00 91 1015.6
20260505085025 5 0 0.0 1.6 0.00 0.00 0.00 91 1015.5
20260505084544 5 0 0.0 1.6 0.00 0.00 0.00 91 1015.6
20260505084025 5 0 0.0 1.6 0.00 0.00 0.00 91 1015.5
20260505083529 5 0 0.0 1.6 0.00 0.00 0.00 91 1015.5
20260505083051 5 0 0.0 0.0 0.00 0.00 0.00 91 1015.5
20260505082525 5 0 0.0 0.0 0.00 0.00 0.00 91 1015.5
20260505082025 5 0 0.0 0.0 0.00 0.00 0.00 91 1015.6
20260505081536 5 0 0.0 0.0 0.00 0.00 0.00 91 1015.5
20260505081029 5 0 0.0 0.0 0.00 0.00 0.00 90 1015.5
20260505080526 6 0 0.0 1.6 0.00 0.00 0.00 90 1015.4
20260505080033 6 0 0.0 1.6 0.00 0.00 0.00 90 1015.3
20260505075524 6 0 0.0 0.0 0.00 0.00 0.00 90 1015.4
20260505075026 6 0 0.0 0.0 0.00 0.00 0.00 90 1015.4
20260505074541 6 0 0.0 1.6 0.00 0.00 0.00 90 1015.3
20260505074025 6 0 0.0 3.2 0.00 0.00 0.00 90 1015.3
20260505073525 6 0 0.0 3.2 0.00 0.00 0.00 90 1015.1
20260505073046 6 128 0.0 3.2 0.00 0.00 0.00 90 1015.4
20260505072525 6 0 0.0 0.0 0.00 0.00 0.00 90 1015.3
20260505072027 6 0 0.0 0.0 0.00 0.00 0.00 90 1015.3
20260505071536 6 0 0.0 0.0 0.00 0.00 0.00 90 1015.3
20260505071026 6 0 0.0 0.0 0.00 0.00 0.00 90 1015.4
20260505070528 6 0 0.0 1.6 0.00 0.00 0.00 89 1015.4
20260505070037 6 0 0.0 1.6 0.00 0.00 0.00 89 1015.3
20260505065524 6 0 0.0 1.6 0.00 0.00 0.00 89 1015.4
20260505065025 6 0 0.0 1.6 0.00 0.00 0.00 89 1015.3
20260505064608 6 0 0.0 1.6 0.00 0.00 0.00 89 1015.4
20260505064025 7 0 0.0 1.6 0.00 0.00 0.00 89 1015.3
20260505063527 7 0 0.0 3.2 0.00 0.00 0.00 89 1015.4
20260505063040 7 0 0.0 3.2 0.00 0.00 0.00 89 1015.4
20260505062525 7 129 0.0 3.2 0.00 0.00 0.00 89 1015.5
20260505062025 7 0 0.0 3.2 0.00 0.00 0.00 89 1015.4
20260505061538 7 129 0.0 3.2 0.00 0.00 0.00 88 1015.5
20260505061025 7 0 0.0 3.2 0.00 0.00 0.00 88 1015.6
20260505060525 7 0 0.0 3.2 0.00 0.00 0.00 88 1015.7
20260505060034 7 0 0.0 1.6 0.00 0.00 0.00 88 1015.7
20260505055525 7 0 0.0 1.6 0.00 0.00 0.00 88 1015.6
20260505055022 7 0 0.0 3.2 0.00 0.00 0.00 88 1015.7
20260505054546 7 0 0.0 3.2 0.00 0.00 0.00 88 1015.6
20260505054025 7 0 0.0 3.2 0.00 0.00 0.00 87 1015.6
20260505053525 7 0 0.0 3.2 0.00 0.00 0.00 87 1015.6
20260505053042 7 0 0.0 3.2 0.00 0.00 0.00 88 1015.8
20260505052525 7 129 0.0 3.2 0.00 0.00 0.00 88 1015.8
20260505052026 7 0 0.0 3.2 0.00 0.00 0.00 88 1015.6
20260505051537 7 0 0.0 3.2 0.00 0.00 0.00 88 1015.4
20260505051025 7 129 0.0 3.2 0.00 0.00 0.00 88 1015.4
20260505050525 7 0 0.0 3.2 0.00 0.00 0.00 88 1015.5
20260505041539 8 0 0.0 1.6 0.00 0.00 0.00 86 1015.3
20260505041025 8 0 0.0 3.2 0.00 0.00 0.00 86 1015.5
20260505040520 8 0 0.0 3.2 0.00 0.00 0.00 86 1015.5
20260505040039 8 129 0.0 1.6 0.00 0.00 0.00 86 1015.5
20260505035522 8 0 0.0 1.6 0.00 0.00 0.00 86 1015.5
20260505035023 8 0 0.0 1.6 0.00 0.00 0.00 86 1015.5
20260505034539 8 0 0.0 1.6 0.00 0.00 0.00 85 1015.6
20260505034024 8 0 0.0 1.6 0.00 0.00 0.00 85 1015.7
20260505033521 8 0 0.0 1.6 0.00 0.00 0.00 85 1015.8
20260505033042 8 0 0.0 1.6 0.00 0.00 0.00 85 1015.8
20260505032521 8 0 0.0 1.6 0.00 0.00 0.00 84 1015.9
20260505032020 9 0 0.0 3.2 0.00 0.00 0.00 84 1015.9
20260505031542 9 0 0.0 3.2 0.00 0.00 0.00 84 1016.0
20260505031020 9 0 0.0 3.2 0.00 0.00 0.00 84 1016.1
20260505030520 9 0 0.0 1.6 0.00 0.00 0.00 84 1015.9
20260505030047 9 0 0.0 1.6 0.00 0.00 0.00 83 1016.0
20260505025521 10 127 0.0 0.0 0.00 0.00 0.00 83 1016.1
20260505025020 10 0 0.0 1.6 0.00 0.00 0.00 83 1016.1
20260505024536 10 0 0.0 1.6 0.00 0.00 0.00 83 1016.1
20260505024021 10 0 0.0 1.6 0.00 0.00 0.00 82 1016.0
20260505023521 10 0 0.0 1.6 0.00 0.00 0.00 81 1016.0
20260505023042 10 0 0.0 1.6 0.00 0.00 0.00 81 1016.0
20260505022521 10 0 0.0 1.6 0.00 0.00 0.00 81 1015.9
20260505022021 11 0 0.0 1.6 0.00 0.00 0.00 80 1015.8
20260505021536 11 0 0.0 1.6 0.00 0.00 0.00 80 1015.7
20260505021024 11 0 0.0 1.6 0.00 0.00 0.00 79 1015.6
20260505020521 11 0 0.0 1.6 0.00 0.00 0.00 79 1015.6
20260505020038 11 0 0.0 1.6 0.00 0.00 0.00 78 1015.7
20260505015521 12 0 0.0 3.2 0.00 0.00 0.00 78 1015.6
20260505015021 12 0 0.0 3.2 0.00 0.00 0.00 77 1015.5
20260505014542 12 129 0.0 1.6 0.00 0.00 0.00 77 1015.5
20260505014020 12 0 0.0 1.6 0.00 0.00 0.00 76 1015.5
20260505013522 13 0 0.0 1.6 0.00 0.00 0.00 75 1015.4
20260505013040 13 0 0.0 1.6 0.00 0.00 0.00 72 1015.3
20260505012522 13 0 0.0 1.6 0.00 0.00 0.00 72 1015.2
20260505012021 13 0 0.0 1.6 0.00 0.00 0.00 70 1015.4
20260505011536 14 0 0.0 1.6 0.00 0.00 0.00 71 1015.4
20260505011024 15 0 0.0 3.2 0.00 0.00 0.00 69 1015.3
20260505010523 15 0 0.0 3.2 0.00 0.00 0.00 67 1015.2
20260505010035 15 133 0.0 3.2 0.00 0.00 0.00 67 1015.3
20260505005521 15 0 0.0 3.2 0.00 0.00 0.00 65 1015.1
20260505005021 16 0 0.0 4.8 0.00 0.00 0.00 65 1015.0
20260505004555 16 132 0.0 6.4 0.00 0.00 0.00 63 1015.0
20260505004021 16 132 1.6 6.4 0.00 0.00 0.00 64 1015.0
20260505003525 16 285 0.0 3.2 0.00 0.00 0.00 62 1014.8
20260505003039 16 0 0.0 3.2 0.00 0.00 0.00 61 1014.8
20260505002521 17 0 0.0 4.8 0.00 0.00 0.00 60 1014.7
20260505002020 17 0 0.0 6.4 0.00 0.00 0.00 59 1014.8
20260505001539 17 0 1.6 6.4 0.00 0.00 0.00 60 1014.5
20260505001022 18 10 1.6 4.8 0.00 0.00 0.00 57 1014.5
20260505000520 18 0 0.0 4.8 0.00 0.00 0.00 58 1014.5
20260505000037 18 0 0.0 3.2 0.00 0.00 0.00 56 1014.5
20260504235520 18 0 0.0 3.2 0.00 0.00 0.00 56 1014.4
20260504235024 19 0 0.0 3.2 0.00 0.00 0.00 53 1014.4
20260504234535 19 0 0.0 9.7 0.00 0.00 0.00 54 1014.3
20260504234023 19 340 0.0 9.7 0.00 0.00 0.00 54 1014.3
20260504233521 19 65 1.6 6.4 0.00 0.00 0.00 55 1014.2
20260504233035 20 225 1.6 6.4 0.00 0.00 0.00 51 1014.2
20260504232524 20 0 0.0 6.4 0.00 0.00 0.00 53 1014.3
20260504232020 20 266 1.6 9.7 0.00 0.00 0.00 51 1014.2
20260504231549 20 0 1.6 9.7 0.00 0.00 0.00 49 1014.1
20260504231020 20 297 1.6 9.7 0.00 0.00 0.00 52 1014.0
20260504230524 20 229 1.6 9.7 0.00 0.00 0.00 50 1014.0
20260504230038 21 308 3.2 9.7 0.00 0.00 0.00 49 1014.0
20260504225525 21 25 1.6 8.0 0.00 0.00 0.00 49 1014.0
20260504225023 21 350 1.6 11.3 0.00 0.00 0.00 47 1014.0
20260504224540 21 0 1.6 11.3 0.00 0.00 0.00 47 1013.9
20260504224023 21 337 1.6 6.4 0.00 0.00 0.00 47 1013.9
20260504223524 21 332 1.6 8.0 0.00 0.00 0.00 46 1013.9
20260504223035 22 325 1.6 12.9 0.00 0.00 0.00 47 1013.9
20260504222523 22 31 1.6 12.9 0.00 0.00 0.00 47 1013.9
20260504222020 22 300 3.2 11.3 0.00 0.00 0.00 44 1014.0
20260504221540 22 50 1.6 8.0 0.00 0.00 0.00 44 1013.8
20260504221023 22 330 3.2 16.1 0.00 0.00 0.00 43 1013.8
20260504220520 22 283 4.8 16.1 0.00 0.00 0.00 43 1013.7
20260504220040 22 219 3.2 12.9 0.00 0.00 0.00 44 1013.7
20260504215521 22 200 3.2 17.7 0.00 0.00 0.00 42 1013.7
20260504215020 22 12 6.4 17.7 0.00 0.00 0.00 43 1013.7
20260504214537 22 266 3.2 12.9 0.00 0.00 0.00 42 1013.6
20260504214020 22 51 1.6 12.9 0.00 0.00 0.00 42 1013.6
20260504213520 23 357 3.2 8.0 0.00 0.00 0.00 41 1013.6
20260504213039 23 260 1.6 9.7 0.00 0.00 0.00 38 1013.6
20260504212521 23 52 3.2 12.9 0.00 0.00 0.00 38 1013.6
20260504212020 23 92 3.2 12.9 0.00 0.00 0.00 38 1013.7
20260504211536 23 281 3.2 12.9 0.00 0.00 0.00 39 1013.4
20260504211023 23 320 3.2 11.3 0.00 0.00 0.00 35 1013.6
20260504210523 23 25 1.6 8.0 0.00 0.00 0.00 34 1013.5
20260504210040 23 310 1.6 16.1 0.00 0.00 0.00 35 1013.6
20260504205524 23 353 3.2 16.1 0.00 0.00 0.00 31 1013.6
20260504205024 23 233 1.6 16.1 0.00 0.00 0.00 31 1013.5
20260504204538 24 70 3.2 16.1 0.00 0.00 0.00 33 1013.5
20260504204020 24 5 3.2 9.7 0.00 0.00 0.00 30 1013.5
20260504203520 25 308 3.2 11.3 0.00 0.00 0.00 31 1013.4
20260504203038 25 167 3.2 11.3 0.00 0.00 0.00 31 1013.5
20260504202520 25 298 4.8 11.3 0.00 0.00 0.00 31 1013.6
20260504202019 25 309 1.6 6.4 0.00 0.00 0.00 34 1013.7
20260504201536 25 0 0.0 6.4 0.00 0.00 0.00 35 1013.6
20260504201020 25 291 3.2 9.7 0.00 0.00 0.00 33 1013.6
20260504200524 24 74 1.6 11.3 0.00 0.00 0.00 39 1013.7
20260504200036 24 113 3.2 11.3 0.00 0.00 0.00 34 1013.8
20260504195523 24 113 1.6 8.0 0.00 0.00 0.00 33 1013.9
20260504195020 24 26 1.6 11.3 0.00 0.00 0.00 37 1014.0
20260504194549 24 12 1.6 11.3 0.00 0.00 0.00 36 1014.1
20260504194023 24 0 1.6 11.3 0.00 0.00 0.00 33 1014.2
20260504193521 23 212 1.6 11.3 0.00 0.00 0.00 38 1014.1
20260504193045 24 0 1.6 9.7 0.00 0.00 0.00 34 1014.3
20260504192520 24 27 1.6 6.4 0.00 0.00 0.00 38 1014.4
20260504192023 23 314 1.6 4.8 0.00 0.00 0.00 40 1014.4
20260504191604 23 356 0.0 8.0 0.00 0.00 0.00 45 1014.6
20260504191020 23 345 1.6 8.0 0.00 0.00 0.00 36 1014.7
20260504190520 23 0 3.2 12.9 0.00 0.00 0.00 37 1014.7
20260504190039 23 0 1.6 12.9 0.00 0.00 0.00 46 1014.8
20260504185523 23 153 1.6 12.9 0.00 0.00 0.00 44 1015.0
20260504185023 23 168 0.0 9.7 0.00 0.00 0.00 46 1015.0
20260504184554 23 0 1.6 9.7 0.00 0.00 0.00 42 1015.2
20260504184026 23 345 3.2 6.4 0.00 0.00 0.00 45 1015.3
20260504183526 23 181 0.0 4.8 0.00 0.00 0.00 45 1015.4
20260504183040 23 293 1.6 11.3 0.00 0.00 0.00 43 1015.3
20260504182529 22 0 1.6 11.3 0.00 0.00 0.00 46 1015.5
20260504182025 22 27 1.6 6.4 0.00 0.00 0.00 42 1015.5
20260504181541 22 221 1.6 9.7 0.00 0.00 0.00 40 1015.5